FW0539 Weather Reports


time (UTC)temp
C
wind
direction
speed
KPH
gust
KPH
rain 1hr
cm
rain 24hr
cm
rain mn
cm
humidity
%
barometer
mb
20260506081503 12 100 3.2 6.4 0.00 0.00 0.00 86 1001.2
20260506073100 12 51 3.2 6.4 0.00 0.00 0.00 87 1001.2
20260506071556 12 55 3.2 4.8 0.00 0.00 0.00 89 1001.2
20260506061556 12 53 3.2 6.4 0.00 0.00 0.00 89 1000.9
20260506044516 12 101 0.0 1.6 0.00 0.00 0.00 88 1000.3
20260506043010 12 101 0.0 1.6 0.00 0.00 0.00 88 1000.3
20260506041508 12 101 0.0 1.6 0.00 0.00 0.00 89 1000.0
20260506040006 12 101 0.0 1.6 0.00 0.00 0.00 89 1000.0
20260506034505 12 101 0.0 3.2 0.00 0.00 0.00 89 999.8
20260506033004 12 101 0.0 1.6 0.00 0.00 0.00 88 999.5
20260506031504 12 100 0.0 1.6 0.00 0.00 0.00 87 999.4
20260506030001 12 100 1.6 4.8 0.00 0.00 0.00 87 999.3
20260506024502 12 264 0.0 3.2 0.00 0.00 0.00 86 999.4
20260506023101 13 281 4.8 6.4 0.00 0.00 0.00 85 999.3
20260506021608 13 360 4.8 9.7 0.00 0.00 0.00 84 999.3
20260506020058 13 278 3.2 9.7 0.00 0.00 0.00 84 999.3
20260506014558 13 284 6.4 11.3 0.00 0.00 0.00 83 999.2
20260506013027 13 284 6.4 14.5 0.00 0.00 0.00 83 999.0
20260506011529 13 281 4.8 12.9 0.00 0.00 0.00 83 999.0
20260506010115 13 15 3.2 9.7 0.00 0.00 0.00 84 999.1
20260506004554 13 223 0.0 8.0 0.00 0.00 0.00 84 999.0
20260506003024 13 33 3.2 8.0 0.00 0.00 0.00 86 999.1
20260506001523 12 284 6.4 9.7 0.00 0.00 0.00 85 999.1
20260506000022 13 42 4.8 8.0 0.00 0.00 0.00 85 999.1
20260505234533 12 26 6.4 9.7 0.00 0.00 0.00 85 999.3
20260505233023 12 21 4.8 9.7 0.00 0.00 0.00 85 999.3
20260505231517 12 11 3.2 8.0 0.00 0.00 0.00 87 999.3
20260505230014 12 21 4.8 11.3 0.00 0.00 0.00 87 999.3
20260505224513 12 360 4.8 9.7 0.00 0.00 0.00 88 999.4
20260505223012 12 5 4.8 8.0 0.00 0.00 0.00 88 999.5
20260505221513 12 360 3.2 9.7 0.00 0.00 0.00 88 999.6
20260505220009 12 42 6.4 12.9 0.00 0.00 0.00 88 999.7
20260505214510 12 271 3.2 8.0 0.00 0.00 0.00 88 999.7
20260505213008 12 264 3.2 9.7 0.00 0.00 0.00 88 999.7
20260505211507 12 284 1.6 6.4 0.00 0.00 0.00 88 999.7
20260505210003 12 284 3.2 8.0 0.00 0.00 0.00 89 999.7
20260505204501 12 257 4.8 11.3 0.00 0.00 0.00 90 999.8
20260505203100 12 46 4.8 8.0 0.00 0.00 0.00 91 999.8
20260505203003 12 17 4.8 8.0 0.00 0.00 0.00 91 999.8
20260505201601 11 13 3.2 6.4 0.00 0.00 0.00 92 999.7
20260505200105 11 12 3.2 8.0 0.00 0.00 0.00 92 999.8
20260505194605 11 257 1.6 6.4 0.00 0.00 0.00 93 999.8
20260505193053 11 196 3.2 8.0 0.00 0.00 0.00 94 999.8
20260505191556 11 205 3.2 6.4 0.00 0.00 0.00 95 999.8
20260505190023 11 205 0.0 12.9 0.00 0.00 0.00 97 999.7
20260505184523 10 178 3.2 8.0 0.00 0.00 0.00 97 999.8
20260505183018 10 192 3.2 8.0 0.00 0.00 0.00 98 999.8
20260505181514 10 175 6.4 11.3 0.00 0.00 0.00 98 999.8
20260505180017 10 207 8.0 11.3 0.00 0.00 0.00 98 999.6
20260505174521 9 197 1.6 6.4 0.00 0.00 0.00 98 999.6
20260505173012 9 205 4.8 9.7 0.00 0.00 0.00 98 999.5
20260505171510 9 203 4.8 8.0 0.00 0.00 0.00 98 999.5
20260505170006 9 181 4.8 8.0 0.00 0.00 0.00 98 999.4
20260505164503 8 144 4.8 8.0 0.00 0.00 0.00 98 999.3
20260505163105 8 193 4.8 11.3 0.00 0.00 0.00 98 999.2
20260505161536 8 168 4.8 9.7 0.00 0.00 0.00 98 999.3
20260505153029 8 187 6.4 12.9 0.00 0.00 0.00 98 999.2
20260505151525 8 196 8.0 11.3 0.00 0.00 0.00 98 999.1
20260505124539 8 153 11.3 14.5 0.00 0.00 0.00 97 998.2
20260505123036 8 158 12.9 16.1 0.00 0.00 0.00 97 998.1
20260505121533 8 155 11.3 14.5 0.00 0.00 0.00 97 998.0
20260505120033 8 155 9.7 16.1 0.00 0.00 0.00 97 997.9
20260505114531 8 163 12.9 16.1 0.00 0.00 0.00 97 997.8
20260505113028 8 163 11.3 17.7 0.00 0.00 0.00 97 997.7
20260505111559 8 158 11.3 17.7 0.00 0.00 0.00 97 997.7
20260505101551 8 152 12.9 22.5 0.00 0.00 0.00 96 997.3
20260505100052 8 153 17.7 22.5 0.00 0.00 0.00 96 997.4
20260505094547 8 167 12.9 25.7 0.00 0.00 0.00 96 997.3
20260505093047 8 156 17.7 25.7 0.00 0.00 0.00 96 997.2
20260505091601 8 173 20.9 25.7 0.00 0.00 0.00 96 997.1
20260505090044 8 148 17.7 29.0 0.00 0.00 0.00 95 997.1
20260505084538 9 153 17.7 27.4 0.00 0.00 0.00 95 997.1
20260505083036 9 158 11.3 22.5 0.00 0.00 0.00 95 997.1